Regional Weather Roundup
Issued by NWS Kansas City/Pleasant Hill, MO

Home | Current Version | Previous Version | Text Only | Print | Product List | Glossary On
Versions: 1 2 3 4 5 6 7 8 9 10 11 12 13 14 15 16 17 18 19 20 21 22 23 24 25 26 27 28
000
ASUS43 KEAX 290910
RWREAX

WEATHER ROUNDUP FOR EASTERN KANSAS AND NORTHWEST MISSOURI
NATIONAL WEATHER SERVICE KANSAS CITY/PLEASANT HILL MO
400 AM CDT THU SEP 29 2016

KSZ040-057-103>105-MOZ028-029-037-043-291000-
...KANSAS CITY METROPOLITAN AREA...

CITY           SKY/WX    TMP DP  RH WIND       PRES   REMARKS
K.C. INTL      PTCLDY    48  45  89 N6        30.29S
K.C. DOWNTOWN  CLEAR     53  47  79 NW3       30.29R
LEES SUMMIT    CLEAR     51  47  86 N8        30.28S
OLATHE - IXD   CLEAR     49  47  93 NW7       30.30R
OLATHE - OJC   CLEAR     51  46  83 N5        30.29R
LAWRENCE       CLEAR     50  49  96 NW8       30.30S

$$

MOZ001>008-011>017-020>025-030>033-038>040-044>046-053-054-291000-
...NORTHERN AND CENTRAL MISSOURI...

CITY           SKY/WX    TMP DP  RH WIND       PRES   REMARKS
ST. JOSEPH     CLEAR     48  46  93 N6        30.31R
MOSBY          SUNNY     48  46  93 NW6       30.29R
WHITEMAN AFB   NOT AVBL
CLINTON        CLEAR     48  46  93 CALM      30.26R
SEDALIA        CLEAR     50  48  93 N7        30.26R
WARSAW         NOT AVBL
CHILLICOTHE      N/A     52  49  89 N6        30.29S
KIRKSVILLE     CLEAR     50  48  93 N10       30.26R

$$

MOZ041-047>049-056>058-063>065-088>090-097-291000-
...EASTERN AND SOUTHERN MISSOURI...

CITY           SKY/WX    TMP DP  RH WIND       PRES   REMARKS
ST. LOUIS INTL CLEAR     55  49  80 NW8       30.12F
SPIRIT OF STL  CLEAR     53  50  89 W6        30.13F
COLUMBIA       CLEAR     50  48  93 NW9       30.21S
JEFFERSON CITY CLEAR     52  49  89 NW6       30.21S
ROLLA          CLEAR     49  47  93 NW6       30.18S
OSAGE BEACH    CLEAR     51  49  92 N6        30.23R
SPRINGFIELD    CLEAR     48  44  86 N5        30.22S
BRANSON        CLEAR     50  46  87 N6        30.23R
JOPLIN         CLEAR     48  47  96 N5        30.26R
WEST PLAINS    CLEAR     52  46  80 N9        30.19S

$$

IAZ060-094-KSZ022-034>040-054-083-096-NEZ052-066-093-291000-
...KANSAS...SOUTHEAST NEBRASKA AND IOWA...

CITY           SKY/WX    TMP DP  RH WIND       PRES   REMARKS
TOPEKA         CLEAR     50  46  86 W3        30.31S
MANHATTAN      CLEAR     50  47  89 CALM      30.34R
EMPORIA        CLEAR     48  47  96 NW3       30.31R
CHANUTE        CLEAR     50  47  89 N6        30.28S
WICHITA        PTCLDY    53  47  79 NE7       30.32R
OMAHA          CLEAR     47  43  86 N7        30.37R
LINCOLN        CLEAR     43  42  97 N7        30.38S
FALLS CITY     CLEAR     49  46  90 NW7       30.32S
LAMONI         CLEAR     50  48  93 N8        30.31R
DES MOINES     CLEAR     54  50  86 N8        30.32R

$$





USA.gov is the U.S. government's official web portal to all federal, state and local government web resources and services.